Location: Nitra
(0.0000°N, 18.0833°E)
Time: 03:17:25
(UTC+01:00)

Nadezhda 4 Rocket - Pass Details

Date: 25 September 2022
Orbit: 949 x 993 km, 82.9° (Epoch: 30 November)

Event Time Altitude Azimuth Distance (km) Brightness Sun altitude
Rises 19:47:54 0° 174° (S) 3,674 7.0 -17.2°
Reaches altitude 10° 19:50:28 10° 169° (SSE) 2,730 6.2 -17.8°
Maximum altitude 19:56:33 53° 93° (E) 1,191 4.1 -19.3°
Drops below altitude 10° 20:02:39 10° 17° (NNE) 2,742 6.2 -20.8°
Sets 20:05:14 0° 13° (NNE) 3,690 6.9 -21.5°
